Weather History for Yuma MCAS, AZ

Change the Weather History Date:

Saturday, November 24, 2012

  Actual Average Record
Temperature  
Mean Temperature 73 °F 62 °F  
Max Temperature 86 °F 74 °F 89 °F (1950)
Min Temperature 60 °F 51 °F 34 °F (1902)
Degree Days  
Heating Degree Days 0 4  
Month to date heating degree days 22 38  
Since 1 July heating degree days 22 40  
Cooling Degree Days 8 1  
Month to date cooling degree days 108 83  
Year to date cooling degree days 4898 4645  
Growing Degree Days 22 (Base 50)    
Moisture  
Dew Point 29 °F    
Average Humidity 22    
Maximum Humidity 32    
Minimum Humidity 12    
Precipitation  
Precipitation 0.00 in 0.01 in 0.34 in (1978)
Month to date precipitation T 0.15  
Year to date precipitation 2.37 2.98  
Sea Level Pressure  
Sea Level Pressure 29.99 in    
Wind  
Wind Speed 7 mph (North)    
Max Wind Speed 14 mph    
Max Gust Speed 18 mph    
Visibility 10 miles    
Events      
T = Trace of Precipitation, MM = Missing Value Source: NWS Daily Summary

Daily Weather History Graph

Daily Weather History Graph

Search for Another Location

Airport:

Trip Planner

Search our weather history database for the weather conditions in past years. The results will help you decide how hot, cold, wet, or windy it might be!

Date:

Astronomy

Nov. 24, 2012 Rise Set
Actual Time 7:16 AM MST 5:33 PM MST
Civil Twilight 6:50 AM MST 6:00 PM MST
Nautical Twilight 6:20 AM MST 6:30 PM MST
Astronomical Twilight 5:50 AM MST 6:59 PM MST
Moon 3:12 PM MST (11/24) 3:47 AM MST (11/24)
Length of Visible Light 11h 09m
Length of Day
10h 16m
Waxing Gibbous, 87% of the Moon is Illuminated
Nov 24
Waxing Gibbous
Nov 28
Full
Dec 6
Last Quarter
Dec 13
New
Dec 19
First Quarter

Hourly Weather History & Observations

Time (MST) Temp. Dew Point Humidity Pressure Visibility Wind Dir Wind Speed Gust Speed Precip Events Conditions
12:55 AM 66.9 °F 28.0 °F 23% 30.06 in 10.0 mi North 5.8 mph - N/A   Clear
1:00 AM - - N/A% - - North - - N/A   Unknown
1:55 AM 68.0 °F 27.0 °F 21% 30.05 in 10.0 mi North 6.9 mph - N/A   Clear
2:55 AM 68.0 °F 27.0 °F 21% 30.04 in 10.0 mi North 8.1 mph - N/A   Clear
3:55 AM 66.9 °F 27.0 °F 22% 30.03 in 10.0 mi North 6.9 mph - N/A   Clear
4:55 AM 64.0 °F 28.0 °F 26% 30.02 in 10.0 mi NNE 5.8 mph - N/A   Clear
5:55 AM 62.1 °F 28.9 °F 29% 30.03 in 10.0 mi NNE 5.8 mph - N/A   Clear
6:55 AM 61.0 °F 30.0 °F 31% 30.04 in 10.0 mi NNE 6.9 mph - N/A   Clear
7:55 AM 61.0 °F 30.9 °F 32% 30.05 in 10.0 mi NNE 8.1 mph - N/A   Clear
8:55 AM 64.9 °F 32.0 °F 29% 30.06 in 10.0 mi NNE 5.8 mph - N/A   Clear
9:55 AM 71.1 °F 33.1 °F 25% 30.07 in 10.0 mi North 5.8 mph - N/A   Clear
10:55 AM 75.9 °F 33.1 °F 21% 30.06 in 10.0 mi North 10.4 mph - N/A   Clear
11:55 AM 81.0 °F 28.9 °F 15% 30.02 in 10.0 mi NNE 13.8 mph - N/A   Clear
12:55 PM 82.9 °F 28.9 °F 14% 29.99 in 10.0 mi NNE 10.4 mph 18.4 mph N/A   Clear
1:55 PM 84.9 °F 28.0 °F 13% 29.96 in 10.0 mi North 9.2 mph - N/A   Clear
2:55 PM 84.9 °F 28.0 °F 13% 29.94 in 10.0 mi North 5.8 mph - N/A   Clear
3:55 PM 84.9 °F 27.0 °F 12% 29.93 in 10.0 mi North 6.9 mph - N/A   Clear
4:55 PM 82.9 °F 27.0 °F 13% 29.92 in 10.0 mi North 8.1 mph - N/A   Clear
5:55 PM 78.1 °F 27.0 °F 15% 29.91 in 10.0 mi North 6.9 mph - N/A   Clear
6:55 PM 75.0 °F 27.0 °F 17% 29.91 in 10.0 mi North 6.9 mph - N/A   Clear
7:55 PM 73.0 °F 27.0 °F 18% 29.91 in 10.0 mi North 6.9 mph - N/A   Clear
8:55 PM 73.0 °F 27.0 °F 18% 29.91 in 10.0 mi North 6.9 mph - N/A   Clear
9:55 PM 68.0 °F 28.0 °F 22% 29.91 in 10.0 mi Calm Calm - N/A   Clear
10:55 PM 64.9 °F 32.0 °F 29% 29.91 in 10.0 mi Calm Calm - N/A   Clear
11:55 PM 63.0 °F 32.0 °F 31% 29.91 in 10.0 mi Calm Calm - N/A   Clear